Location: Unspecified
(0.0000°N, 0.0000°E)
Time: 00:06:06
(UTC+00:00)

CAPRICORN - Pass Details

Date: 20 May 2026
Orbit: 325 x 40040 km, 64.5° (Epoch: 16 April)

Event Time Altitude Azimuth Distance (km) Brightness Sun altitude
Rises 20:24:28 0° 109° (ESE) 43,083 ? -34.4°
Reaches altitude 10° 21:13:40 10° 105° (ESE) 44,054 ? -45.4°
Maximum altitude 01:37:50 59° 50° (NE) 29,339 ? -58.2°
Drops below altitude 10° 03:28:51 10° 17° (NNE) 13,050 ? -34.4°
Sets 03:35:31 0° 18° (NNE) 12,254 ? -32.9°
